Погода в Нижнем Ингаше

Россия / Красноярский край     56°12′15″N   96°32′40″E
темп.,
°C
ветер,
м/с
пор.,
м/с
влажн.,
%
обл.,
%
осадки,
мм/ч
давл.,
гПа
погр.,
м
27 октября, ср
ср2701:00+5ю2878100 0.0 1006154
04:00+8юз61856100 0.0 1006656
07:00+10зюз81845100 0.0 10071491
10:00+6з8195775 0.0 10121674
13:00+4з8164921 0.0 10181589
16:00+2з6144858 0.0 10211563
19:000з5124967 0.0 10241285
22:00−2з4105371 0.0 1026762
28 октября, чт
чт2801:00−2зюз3857100 0.0 1026416
04:00−3юз2660100 0.0 1027267
07:00−2юз3859100 0.0 1027477
10:00−1зюз485099 0.0 10281029
13:00+1з584181 0.0 10291650
16:000з374610 0.0 10291142
19:00−3зюз226295 0.0 103113
22:00−2ююз1258100 0.0 103143
29 октября, пт
пт2901:00−3ю2362100 0.0 103156
04:00−3ююв226067 0.0 103056
07:00−4юв22585 0.0 102941
10:000ююв254698 0.0 1028215
13:00+3ю2445100 0.0 1026352
16:00+2ю2454100 0.0 102677
19:00+1ююз235597 0.0 102658
22:00+1ююз2862100 0.0 1025135
30 октября, сб
сб3001:00+1ююз31070100 0.0 1024182
04:00+1ююз3107895 0.0 1023189
07:00+1ю397993 0.0 1023175
10:00+5ююз3146196 0.0 1021659
13:00+8ююз4135299 0.0 10191113
16:00+9юз61548100 0.0 10181661
19:00+7зюз71751100 0.0 10182061
22:00+3з61467100 0.0 10221609
31 октября, вс
вс3101:00−2з612635 0.1 10271267
04:00−3зюз5116048 0.0 10291261
07:00−4зюз51057100 0.0 10291223
10:00−2зюз4951100 0.0 10281220
13:00−1зюз494185 0.0 10261360
16:00−1юз2447100 0.0 1023488
19:00−2ююв2255100 0.0 102251
22:00−3ююв1159100 0.0 101926